| time (UTC) | temp C | wind direction | speed KPH | gust KPH | rain 1hr cm | rain 24hr cm | rain mn cm | humidity % | barometer mb |
| 20260904043945 | 16 | 0 | 0.0 | 0.0 | 0.10 | 0.10 | 0.10 | 99 | |
| 20260904042945 | 16 | 0 | 0.0 | 0.0 | 0.08 | 0.08 | 0.08 | 99 | |
| 20260904041915 | 16 | 0 | 0.0 | 0.0 | 0.05 | 0.05 | 0.05 | 97 | |
| 20260904040915 | 16 | 0 | 1.6 | 0.0 | 0.03 | 0.03 | 0.03 | 97 | |
| 20260904035845 | 16 | 0 | 0.0 | 0.0 | 0.03 | 0.03 | 0.03 | 97 | |
| 20260904034845 | 16 | 0 | 0.0 | 0.0 | 0.00 | 0.00 | 0.00 | 96 | |
| 20260904033815 | 16 | 0 | 0.0 | 0.0 | 0.00 | 0.00 | 0.00 | 95 | |
| 20260904032745 | 16 | 0 | 0.0 | 0.0 | 0.00 | 0.00 | 0.00 | 93 | |
| 20260904031715 | 16 | 0 | 0.0 | 0.0 | 0.00 | 0.00 | 0.00 | 93 | |
| 20260904030715 | 17 | 0 | 1.6 | 0.0 | 0.00 | 0.00 | 0.00 | 91 | |
| 20260904025715 | 17 | 0 | 3.2 | 0.0 | 0.00 | 0.00 | 0.00 | 88 | |
| 20260904024715 | 17 | 0 | 4.8 | 0.0 | 0.00 | 0.00 | 0.00 | 87 | |
| 20260904023645 | 17 | 0 | 4.8 | 0.0 | 0.00 | 0.00 | 0.00 | 86 | |
| 20260904022615 | 17 | 0 | 3.2 | 0.0 | 0.00 | 0.00 | 0.00 | 85 | |
| 20260904021615 | 18 | 0 | 4.8 | 0.0 | 0.00 | 0.00 | 0.00 | 84 | |
| 20260904020545 | 18 | 0 | 1.6 | 0.0 | 0.00 | 0.00 | 0.00 | 82 | |
| 20260904015545 | 18 | 0 | 6.4 | 0.0 | 0.00 | 0.00 | 0.00 | 80 | |
| 20260904014545 | 18 | 0 | 1.6 | 0.0 | 0.00 | 0.00 | 0.00 | 79 | |
| 20260904013515 | 19 | 0 | 3.2 | 0.0 | 0.00 | 0.00 | 0.00 | 78 | |
| 20260904012515 | 19 | 0 | 4.8 | 0.0 | 0.00 | 0.00 | 0.00 | 77 | |
| 20260904011445 | 19 | 0 | 9.7 | 0.0 | 0.00 | 0.00 | 0.00 | 76 | |
| 20260904010445 | 20 | 0 | 6.4 | 0.0 | 0.00 | 0.00 | 0.00 | 75 | |
| 20260904005445 | 20 | 0 | 3.2 | 0.0 | 0.00 | 0.00 | 0.00 | 75 | |
| 20260904004415 | 20 | 0 | 3.2 | 0.0 | 0.00 | 0.00 | 0.00 | 75 | |
| 20260904003345 | 20 | 0 | 6.4 | 0.0 | 0.00 | 0.00 | 0.00 | 74 | |
| 20260904002345 | 20 | 0 | 4.8 | 0.0 | 0.00 | 0.00 | 0.00 | 74 | |
| 20260904001315 | 20 | 0 | 6.4 | 0.0 | 0.00 | 0.00 | 0.00 | 74 | |
| 20260904000248 | 20 | 0 | 3.2 | 0.0 | 0.00 | 0.00 | 0.00 | 74 | |
| 20260903235215 | 20 | 0 | 3.2 | 0.0 | 0.00 | 0.00 | 0.00 | 75 | |
| 20260903234215 | 19 | 0 | 3.2 | 0.0 | 0.00 | 0.00 | 0.00 | 75 | |
| 20260903233145 | 19 | 0 | 9.7 | 0.0 | 0.00 | 0.00 | 0.00 | 75 | |
| 20260903232115 | 20 | 0 | 4.8 | 0.0 | 0.00 | 0.00 | 0.00 | 74 | |
| 20260903231045 | 20 | 0 | 6.4 | 0.0 | 0.00 | 0.00 | 0.00 | 74 | |
| 20260903230045 | 20 | 0 | 8.0 | 0.0 | 0.00 | 0.00 | 0.00 | 74 | |
| 20260903225045 | 20 | 0 | 3.2 | 0.0 | 0.00 | 0.00 | 0.00 | 74 | |
| 20260903224015 | 20 | 0 | 6.4 | 0.0 | 0.00 | 0.00 | 0.00 | 74 | |
| 20260903223015 | 20 | 0 | 3.2 | 0.0 | 0.00 | 0.00 | 0.00 | 74 | |
| 20260903221945 | 20 | 0 | 6.4 | 0.0 | 0.00 | 0.00 | 0.00 | 73 | |
| 20260903220945 | 20 | 0 | 4.8 | 0.0 | 0.00 | 0.00 | 0.00 | 73 | |
| 20260903215945 | 20 | 0 | 8.0 | 0.0 | 0.00 | 0.00 | 0.00 | 72 | |
| 20260903214945 | 20 | 0 | 6.4 | 0.0 | 0.00 | 0.00 | 0.00 | 72 | |
| 20260903213915 | 20 | 0 | 6.4 | 0.0 | 0.00 | 0.00 | 0.00 | 72 | |
| 20260903212915 | 20 | 0 | 6.4 | 0.0 | 0.00 | 0.00 | 0.00 | 71 | |
| 20260903211845 | 20 | 0 | 1.6 | 0.0 | 0.00 | 0.00 | 0.00 | 71 | |
| 20260903210815 | 20 | 0 | 6.4 | 0.0 | 0.00 | 0.00 | 0.00 | 69 | |
| 20260903205745 | 21 | 0 | 3.2 | 0.0 | 0.00 | 0.00 | 0.00 | 69 | |
| 20260903204715 | 20 | 0 | 3.2 | 0.0 | 0.00 | 0.00 | 0.00 | 69 | |
| 20260903203715 | 20 | 0 | 1.6 | 0.0 | 0.00 | 0.00 | 0.00 | 69 | |
| 20260903202645 | 20 | 0 | 3.2 | 0.0 | 0.00 | 0.00 | 0.00 | 69 | |
| 20260903201615 | 20 | 0 | 8.0 | 0.0 | 0.00 | 0.00 | 0.00 | 69 | |
| 20260903200615 | 20 | 0 | 6.4 | 0.0 | 0.00 | 0.00 | 0.00 | 71 | |
| 20260903195615 | 20 | 0 | 4.8 | 0.0 | 0.00 | 0.00 | 0.00 | 70 | |
| 20260903194545 | 20 | 0 | 8.0 | 0.0 | 0.00 | 0.00 | 0.00 | 69 | |
| 20260903193545 | 20 | 0 | 8.0 | 0.0 | 0.00 | 0.00 | 0.00 | 68 | |
| 20260903192545 | 21 | 0 | 9.7 | 0.0 | 0.00 | 0.00 | 0.00 | 67 | |
| 20260903191515 | 21 | 0 | 3.2 | 0.0 | 0.00 | 0.00 | 0.00 | 67 | |
| 20260903190515 | 20 | 0 | 6.4 | 0.0 | 0.00 | 0.00 | 0.00 | 66 | |
| 20260903185515 | 20 | 0 | 6.4 | 0.0 | 0.00 | 0.00 | 0.00 | 67 | |
| 20260903184515 | 20 | 0 | 9.7 | 0.0 | 0.00 | 0.00 | 0.00 | 66 | |
| 20260903183515 | 20 | 0 | 6.4 | 0.0 | 0.00 | 0.00 | 0.00 | 66 | |
| 20260903182445 | 20 | 0 | 6.4 | 0.0 | 0.00 | 0.00 | 0.00 | 66 | |
| 20260903181415 | 20 | 0 | 3.2 | 0.0 | 0.00 | 0.00 | 0.00 | 66 | |
| 20260903180415 | 20 | 0 | 11.3 | 0.0 | 0.00 | 0.00 | 0.00 | 65 | |
| 20260903175345 | 20 | 0 | 6.4 | 0.0 | 0.00 | 0.00 | 0.00 | 66 | |
| 20260903174315 | 19 | 0 | 6.4 | 0.0 | 0.00 | 0.00 | 0.00 | 66 | |
| 20260903173315 | 19 | 0 | 8.0 | 0.0 | 0.00 | 0.00 | 0.00 | 66 | |
| 20260903172315 | 19 | 0 | 3.2 | 0.0 | 0.00 | 0.00 | 0.00 | 67 | |
| 20260903171245 | 18 | 0 | 4.8 | 0.0 | 0.00 | 0.00 | 0.00 | 69 | |
| 20260903170245 | 18 | 0 | 3.2 | 0.0 | 0.00 | 0.00 | 0.00 | 69 | |
| 20260903165215 | 17 | 0 | 4.8 | 0.0 | 0.00 | 0.00 | 0.00 | 70 | |
| 20260903164215 | 17 | 0 | 3.2 | 0.0 | 0.00 | 0.00 | 0.00 | 70 | |
| 20260903163145 | 17 | 0 | 1.6 | 0.0 | 0.00 | 0.00 | 0.00 | 71 | |
| 20260903162115 | 17 | 0 | 3.2 | 0.0 | 0.00 | 0.00 | 0.00 | 72 | |
| 20260903161115 | 16 | 0 | 3.2 | 0.0 | 0.00 | 0.00 | 0.00 | 72 | |
| 20260903160045 | 16 | 0 | 3.2 | 0.0 | 0.00 | 0.00 | 0.00 | 73 | |
| 20260903155045 | 16 | 0 | 3.2 | 0.0 | 0.00 | 0.00 | 0.00 | 75 | |
| 20260903154015 | 16 | 0 | 1.6 | 0.0 | 0.00 | 0.00 | 0.00 | 76 | |
| 20260903153015 | 15 | 0 | 0.0 | 0.0 | 0.00 | 0.00 | 0.00 | 77 | |
| 20260903152015 | 15 | 0 | 1.6 | 0.0 | 0.00 | 0.00 | 0.00 | 77 | |
| 20260903151015 | 15 | 0 | 4.8 | 0.0 | 0.00 | 0.00 | 0.00 | 80 | |
| 20260903150015 | 15 | 0 | 1.6 | 0.0 | 0.00 | 0.00 | 0.00 | 81 | |
| 20260903145015 | 14 | 0 | 1.6 | 0.0 | 0.00 | 0.00 | 0.00 | 82 | |
| 20260903143945 | 14 | 0 | 3.2 | 0.0 | 0.00 | 0.00 | 0.00 | 82 | |
| 20260903142915 | 14 | 0 | 1.6 | 0.0 | 0.00 | 0.00 | 0.00 | 82 | |
| 20260903141915 | 14 | 0 | 6.4 | 0.0 | 0.00 | 0.00 | 0.00 | 83 | |
| 20260903140845 | 14 | 0 | 1.6 | 0.0 | 0.00 | 0.00 | 0.00 | 83 | |
| 20260903135815 | 14 | 0 | 1.6 | 0.0 | 0.00 | 0.00 | 0.00 | 83 | |
| 20260903134815 | 14 | 0 | 4.8 | 0.0 | 0.00 | 0.00 | 0.00 | 83 | |
| 20260903133815 | 14 | 0 | 3.2 | 0.0 | 0.00 | 0.00 | 0.00 | 82 | |
| 20260903132745 | 14 | 0 | 3.2 | 0.0 | 0.00 | 0.00 | 0.00 | 82 | |
| 20260903131745 | 14 | 0 | 1.6 | 0.0 | 0.00 | 0.00 | 0.00 | 81 | |
| 20260903130745 | 14 | 0 | 3.2 | 0.0 | 0.00 | 0.00 | 0.00 | 81 | |
| 20260903125715 | 14 | 0 | 8.0 | 0.0 | 0.00 | 0.00 | 0.00 | 80 | |
| 20260903124715 | 14 | 0 | 3.2 | 0.0 | 0.00 | 0.00 | 0.00 | 80 | |
| 20260903123715 | 14 | 0 | 4.8 | 0.0 | 0.00 | 1.37 | 0.00 | 80 | |
| 20260903122645 | 14 | 0 | 3.2 | 0.0 | 0.00 | 1.37 | 0.00 | 80 | |
| 20260903121645 | 15 | 0 | 3.2 | 0.0 | 0.00 | 1.37 | 0.00 | 79 | |
| 20260903120615 | 15 | 0 | 3.2 | 0.0 | 0.00 | 1.37 | 0.00 | 78 | |
| 20260903115615 | 15 | 0 | 3.2 | 0.0 | 0.00 | 1.37 | 0.00 | 77 | |
| 20260903114615 | 15 | 0 | 4.8 | 0.0 | 0.00 | 1.37 | 0.00 | 77 | |
| 20260903113545 | 15 | 0 | 4.8 | 0.0 | 0.00 | 1.37 | 0.00 | 77 | |
| 20260903112545 | 15 | 0 | 3.2 | 0.0 | 0.00 | 1.37 | 0.00 | 77 | |
| 20260903111515 | 15 | 0 | 4.8 | 0.0 | 0.00 | 1.37 | 0.00 | 77 | |
| 20260903110445 | 15 | 0 | 1.6 | 0.0 | 0.00 | 1.37 | 0.00 | 77 | |
| 20260903105415 | 15 | 0 | 3.2 | 0.0 | 0.00 | 1.37 | 0.00 | 77 | |
| 20260903104415 | 15 | 0 | 4.8 | 0.0 | 0.00 | 1.37 | 0.00 | 77 | |
| 20260903103345 | 15 | 0 | 3.2 | 0.0 | 0.00 | 1.37 | 0.00 | 77 | |
| 20260903102345 | 15 | 0 | 3.2 | 0.0 | 0.00 | 1.37 | 0.00 | 77 | |
| 20260903101345 | 15 | 0 | 1.6 | 0.0 | 0.00 | 1.37 | 0.00 | 77 | |
| 20260903100345 | 15 | 0 | 3.2 | 0.0 | 0.00 | 1.37 | 0.00 | 78 |